Regional Weather Roundup
Issued by NWS State College, PA

Home | Current Version | Previous Version | Text Only | Print | Product List | Glossary On
Versions: 1 2 3 4 5 6 7 8 9 10 11 12 13 14 15 16 17 18 19 20 21 22 23 24 25 26 27 28 29 30 31 32 33 34 35 36 37 38 39 40 41 42 43 44 45 46 47 48 49 50
000
ASUS41 KCTP 051103
RWRCTP

REGIONAL WEATHER ROUNDUP
NATIONAL WEATHER SERVICE STATE COLLEGE PA
600 AM EST THU MAR 05 2015

Note: "fair" indicates few or no clouds below 12,000 feet with no
significant weather and/or obstructions to visibility.

* = STATION THAT DOES NOT REPORT PRECIPITATION /E.G. RAIN...SNOW...ETC/
    THUNDER OR FOG.

PAZ002>004-007>009-013>016-020>023-029>032-051200-
WESTERN PENNSYLVANIA

CITY           SKY/WX    TMP DP  RH WIND       PRES   REMARKS
ERIE           CLOUDY    12   1  61 N9        30.29R WCI   0
MEADVILLE      CLOUDY    12   1  61 N10       30.19R WCI  -1
FRANKLIN*      CLOUDY    12   1  62 N12       30.18R WCI  -2
NEW CASTLE     FLURRIES  13   4  67 NW15G21   30.23R WCI  -3
BEAVER COUNTY  NOT AVBL
BUTLER*        CLOUDY    16  10  79 N7        30.19R WCI   6
PITTSBURGH INT LGT SNOW  16  13  88 N8        30.17R VSB 1   WCI   5
PITTSBURGH     LGT SNOW  17  12  80 N14       30.15R VSB 1   WCI   3
INDIANA*       FOG       18  16  93 N10G16    30.16R VSB 1   WCI   6
LATROBE        LGT SNOW  19  19 100 NW7       30.16S VSB 3/4 WCI  10
WASHINGTON CO* CLOUDY    19  14  79 NW5       30.16F WCI  13
$$

PAZ004>006-010>012-017>019-024>028-033>037-041-042-045-046-049>053-051200-
CENTRAL PENNSYLVANIA

CITY           SKY/WX    TMP DP  RH WIND       PRES   REMARKS
BRADFORD       CLOUDY    10  -2  58 NW15      30.08R WCI  -7
DUBOIS         CLOUDY    16   9  74 N12       30.07R HAZE    WCI   3
CLEARFIELD     LGT SNOW  20  14  77 N7        30.08R WCI  11
JOHNSTOWN      LGT SNOW  18  15  88 N12       30.01R FOG     WCI   5
ALTOONA        CLOUDY    25  18  74 N15G22    30.06R WCI  13
STATE COLLEGE  FLURRIES  27  18  69 NW10G16   30.07R
WILLIAMSPORT   CLOUDY    30  15  53 NW14G21   30.09R
SELINSGROVE    CLOUDY    33  21  61 N15G25    30.06R
FT INDIANTOWN  LGT SNOW  32  27  83 W6        30.03R
CAPITAL CITY   LGT SNOW  31  28  89 W7        30.07R FOG
HARRISBURG     LGT SNOW  32  28  85 NW7       30.06R
YORK           LGT SNOW  32  29  88 NW7       30.05R FOG
$$

PAZ038>040-043-044-047-048-054-055-060>062-067>071-051200-
EASTERN PENNSYLVANIA

CITY           SKY/WX    TMP DP  RH WIND       PRES   REMARKS
SCRANTON       FLURRIES  28  19  69 N18       30.01R
MOUNT POCONO   CLOUDY    25  17  72 NW16G25   29.90R WCI  12
ALLENTOWN      LGT SNOW  32  28  86 NW7       30.01S FOG
QUAKERTOWN*    CLOUDY    32  32 100 N5        30.01R
READING        LGT SNOW  32  29  88 NW12      30.04R FOG
LANCASTER      LGT SNOW  32  30  92 NW9       30.04R FOG
COATESVILLE    LGT SNOW  34  34 100 NW9       30.01R VSB 1
POTTSTOWN      LGT SNOW  32  32 100 NW5       30.02R FOG
BLUE BELL      CLOUDY    34  34 100 CALM      30.01R
DOYLESTOWN     LGT SNOW  31  31 100 N6        30.00R FOG
WILLOW GROVE   NOT AVBL
NORTH PHILA    LGT SNOW  35  32  88 N12       30.04R
PHILADELPHIA   LGT SNOW  34  32  92 N7        30.03S FOG
$$


USA.gov is the U.S. government's official web portal to all federal, state and local government web resources and services.